DLH2FA EDDN-EDDH

Flight info

Callsign DLH2FA
Flight time 0h 41m
Altitude 30000
Route ERETO1G ERETO DCT LONLI M726 LASTO M852 HLZ Z990 DIRBO T902 RARUP RARUP3P
Aircraft A320/M-SDE3FGHIRWY/LB1

Departure

Time 2026-05-03 21:57
Airport Nuremberg Airport (EDDN)

Arrival

Time 2026-05-03 22:38
Airport Hamburg Helmut Schmidt Airport (EDDH)
Time Latitude Longitude Altitude Speed Heading
2026-05-03 21:34 49.49628 11.07142 1052 ft 0 kts 188°
2026-05-03 21:44 49.49647 11.07144 1024 ft 4 kts 165°
2026-05-03 21:45 49.49666 11.07127 1022 ft 4 kts 122°
2026-05-03 21:45 49.49673 11.07099 1024 ft 0 kts 97°
2026-05-03 21:50 49.49667 11.07170 1023 ft 16 kts 103°
2026-05-03 21:50 49.49630 11.07315 1023 ft 12 kts 98°
2026-05-03 21:50 49.49619 11.07428 1025 ft 10 kts 98°
2026-05-03 21:51 49.49612 11.07504 1025 ft 5 kts 98°
2026-05-03 21:51 49.49610 11.07523 1022 ft 0 kts 98°
2026-05-03 21:51 49.49605 11.07571 1024 ft 12 kts 98°
2026-05-03 21:52 49.49587 11.07766 1024 ft 23 kts 100°
2026-05-03 21:52 49.49562 11.08019 1028 ft 15 kts 98°
2026-05-03 21:52 49.49543 11.08208 1024 ft 18 kts 99°
2026-05-03 21:52 49.49540 11.08333 1030 ft 9 kts 51°
2026-05-03 21:53 49.49594 11.08360 1032 ft 8 kts 22°
2026-05-03 21:53 49.49609 11.08473 1034 ft 13 kts 96°
2026-05-03 21:53 49.49597 11.08625 1036 ft 14 kts 98°
2026-05-03 21:53 49.49583 11.08763 1037 ft 14 kts 98°
2026-05-03 21:54 49.49567 11.08930 1038 ft 18 kts 98°
2026-05-03 21:54 49.49547 11.09130 1041 ft 20 kts 99°
2026-05-03 21:54 49.49536 11.09350 1045 ft 19 kts 65°
2026-05-03 21:54 49.49601 11.09506 1050 ft 15 kts 54°
2026-05-03 21:55 49.49670 11.09570 1052 ft 10 kts 356°
2026-05-03 21:55 49.49703 11.09498 1051 ft 9 kts 281°
2026-05-03 21:55 49.49705 11.09477 1051 ft 0 kts 278°
2026-05-03 21:56 49.49708 11.09442 1051 ft 23 kts 278°
2026-05-03 21:56 49.49779 11.08723 1040 ft 111 kts 279°
2026-05-03 21:56 49.49932 11.07176 1024 ft 178 kts 278°
2026-05-03 21:57 49.50115 11.05203 1789 ft 180 kts 279°
2026-05-03 21:57 49.50274 11.03337 2978 ft 173 kts 279°
2026-05-03 21:57 49.50442 11.01526 4084 ft 170 kts 281°
2026-05-03 21:57 49.50628 10.99716 5064 ft 173 kts 280°
2026-05-03 21:58 49.50824 10.97853 5961 ft 182 kts 277°
2026-05-03 21:58 49.51030 10.95803 6591 ft 204 kts 277°
2026-05-03 21:58 49.51547 10.93716 7398 ft 219 kts 306°
2026-05-03 21:58 49.52893 10.92329 8035 ft 249 kts 339°
2026-05-03 21:59 49.54668 10.91884 8651 ft 281 kts 353°
2026-05-03 21:59 49.56777 10.91741 9061 ft 318 kts 355°
2026-05-03 21:59 49.59077 10.91690 9457 ft 351 kts 357°
2026-05-03 21:59 49.61616 10.91686 9859 ft 378 kts 357°
2026-05-03 22:00 49.64325 10.91696 10226 ft 398 kts 357°
2026-05-03 22:00 49.67149 10.91691 10592 ft 414 kts 357°
2026-05-03 22:00 49.70084 10.91665 11037 ft 427 kts 357°
2026-05-03 22:00 49.73083 10.91619 11673 ft 434 kts 357°
2026-05-03 22:01 49.76121 10.91554 12430 ft 439 kts 357°
2026-05-03 22:01 49.79187 10.91480 13154 ft 443 kts 357°
2026-05-03 22:01 49.82285 10.91404 13873 ft 446 kts 357°
2026-05-03 22:01 49.85396 10.91332 14519 ft 449 kts 357°
2026-05-03 22:02 49.86192 10.91315 14674 ft 450 kts 357°
2026-05-03 22:02 49.88684 10.91258 15159 ft 451 kts 357°
2026-05-03 22:02 49.91829 10.91189 15774 ft 453 kts 357°
2026-05-03 22:02 49.94989 10.91126 16408 ft 453 kts 357°
2026-05-03 22:03 49.98143 10.91067 17052 ft 453 kts 357°
2026-05-03 22:03 50.01237 10.91015 18283 ft 436 kts 357°
2026-05-03 22:03 50.04208 10.90967 19551 ft 417 kts 356°
2026-05-03 22:03 50.07006 10.90915 20922 ft 398 kts 356°
2026-05-03 22:04 50.09714 10.90861 22386 ft 379 kts 356°
2026-05-03 22:04 50.12284 10.90810 23811 ft 360 kts 355°
2026-05-03 22:04 50.14818 10.90752 24223 ft 372 kts 355°
2026-05-03 22:04 50.17477 10.90681 24267 ft 392 kts 356°
2026-05-03 22:05 50.20273 10.90606 24277 ft 411 kts 356°
2026-05-03 22:05 50.23191 10.90533 24279 ft 427 kts 356°
2026-05-03 22:05 50.26213 10.90465 24283 ft 441 kts 356°
2026-05-03 22:05 50.29296 10.90402 24283 ft 453 kts 356°
2026-05-03 22:06 50.32487 10.90341 24283 ft 464 kts 356°
2026-05-03 22:06 50.35748 10.90277 24282 ft 473 kts 356°
2026-05-03 22:06 50.39067 10.90210 24291 ft 481 kts 356°
2026-05-03 22:06 50.42440 10.90137 24291 ft 488 kts 356°
2026-05-03 22:07 50.45860 10.90064 24290 ft 494 kts 356°
2026-05-03 22:07 50.49311 10.89993 24292 ft 498 kts 357°
2026-05-03 22:07 50.52791 10.89922 24291 ft 501 kts 357°
2026-05-03 22:07 50.56279 10.89850 24287 ft 503 kts 357°
2026-05-03 22:08 50.59784 10.89776 24288 ft 505 kts 357°
2026-05-03 22:08 50.63302 10.89704 24285 ft 506 kts 357°
2026-05-03 22:08 50.66823 10.89630 24281 ft 506 kts 356°
2026-05-03 22:08 50.70353 10.89554 24285 ft 507 kts 357°
2026-05-03 22:09 50.73887 10.89478 24286 ft 507 kts 357°
2026-05-03 22:09 50.77419 10.89403 24287 ft 508 kts 356°
2026-05-03 22:09 50.80943 10.89326 24570 ft 499 kts 357°
2026-05-03 22:10 50.87595 10.89199 26679 ft 461 kts 356°
2026-05-03 22:10 50.90735 10.89136 27888 ft 441 kts 356°
2026-05-03 22:10 50.93736 10.89074 29094 ft 424 kts 356°
2026-05-03 22:10 50.96682 10.89009 29595 ft 426 kts 356°
2026-05-03 22:11 50.99683 10.88935 29742 ft 434 kts 356°
2026-05-03 22:11 51.02722 10.88860 29917 ft 440 kts 356°
2026-05-03 22:11 51.05813 10.88786 30001 ft 448 kts 356°
2026-05-03 22:12 51.12183 10.88644 30000 ft 467 kts 356°
2026-05-03 22:12 51.18794 10.88506 29992 ft 482 kts 356°
2026-05-03 22:13 51.24517 10.88384 29992 ft 492 kts 356°
2026-05-03 22:13 51.30649 10.88251 29991 ft 499 kts 356°
2026-05-03 22:14 51.37647 10.88099 29977 ft 505 kts 356°
2026-05-03 22:14 51.44700 10.87945 29977 ft 508 kts 356°
2026-05-03 22:15 51.51762 10.87790 29971 ft 505 kts 356°
2026-05-03 22:15 51.58784 10.87635 29968 ft 504 kts 356°
2026-05-03 22:16 51.65798 10.87482 29971 ft 504 kts 356°
2026-05-03 22:16 51.72809 10.87322 29965 ft 504 kts 356°
2026-05-03 22:17 51.79824 10.87151 29973 ft 504 kts 356°
2026-05-03 22:17 51.86837 10.87000 29959 ft 504 kts 356°
2026-05-03 22:18 51.93861 10.86848 29955 ft 505 kts 356°
2026-05-03 22:18 52.00889 10.86693 29948 ft 505 kts 356°
2026-05-03 22:19 52.07867 10.86551 29791 ft 504 kts 356°
2026-05-03 22:19 52.11373 10.86473 29670 ft 503 kts 356°
2026-05-03 22:19 52.14924 10.86385 29533 ft 506 kts 356°
2026-05-03 22:19 52.18425 10.86296 29359 ft 512 kts 356°
2026-05-03 22:20 52.21992 10.86211 29232 ft 513 kts 356°
2026-05-03 22:20 52.25564 10.86131 29101 ft 511 kts 356°
2026-05-03 22:20 52.29110 10.86057 28883 ft 508 kts 356°
2026-05-03 22:20 52.32645 10.85983 28664 ft 507 kts 356°
2026-05-03 22:21 52.36179 10.85905 28458 ft 507 kts 356°
2026-05-03 22:21 52.43238 10.85716 28495 ft 507 kts 356°
2026-05-03 22:21 52.46760 10.85599 28617 ft 507 kts 355°
2026-05-03 22:22 52.50291 10.85473 28675 ft 507 kts 355°
2026-05-03 22:22 52.57356 10.85222 28564 ft 507 kts 355°
2026-05-03 22:22 52.60839 10.85108 28457 ft 507 kts 355°
2026-05-03 22:23 52.64368 10.84998 28326 ft 504 kts 355°
2026-05-03 22:23 52.67888 10.84895 27806 ft 512 kts 356°
2026-05-03 22:23 52.71481 10.84783 27493 ft 517 kts 355°
2026-05-03 22:23 52.75041 10.84674 26940 ft 506 kts 355°
2026-05-03 22:24 52.77390 10.84604 26601 ft 506 kts 355°
2026-05-03 22:24 52.80911 10.84498 25996 ft 506 kts 355°
2026-05-03 22:24 52.84421 10.84188 25401 ft 504 kts 349°
2026-05-03 22:24 52.87894 10.83481 24820 ft 501 kts 349°
2026-05-03 22:25 52.91348 10.82776 24250 ft 502 kts 349°
2026-05-03 22:25 52.94830 10.82060 23683 ft 504 kts 349°
2026-05-03 22:25 52.98302 10.81355 23033 ft 502 kts 349°
2026-05-03 22:25 53.01754 10.80655 22336 ft 497 kts 349°
2026-05-03 22:26 53.05169 10.79965 21653 ft 491 kts 349°
2026-05-03 22:26 53.08548 10.79274 20980 ft 486 kts 349°
2026-05-03 22:26 53.11887 10.78580 20327 ft 481 kts 349°
2026-05-03 22:26 53.15180 10.77851 19686 ft 475 kts 347°
2026-05-03 22:27 53.18315 10.76394 19053 ft 463 kts 333°
2026-05-03 22:27 53.21155 10.74070 18357 ft 458 kts 328°
2026-05-03 22:27 53.23967 10.71654 17576 ft 453 kts 328°
2026-05-03 22:27 53.26754 10.69234 16799 ft 448 kts 328°
2026-05-03 22:28 53.29508 10.66830 16026 ft 444 kts 328°
2026-05-03 22:28 53.32227 10.64450 15334 ft 439 kts 328°
2026-05-03 22:28 53.34924 10.62090 14637 ft 434 kts 328°
2026-05-03 22:28 53.37591 10.59759 13925 ft 430 kts 328°
2026-05-03 22:29 53.40226 10.57457 13196 ft 426 kts 328°
2026-05-03 22:29 53.42843 10.55166 12443 ft 421 kts 328°
2026-05-03 22:29 53.45427 10.52899 11729 ft 417 kts 328°
2026-05-03 22:29 53.47988 10.50647 11015 ft 413 kts 328°
2026-05-03 22:30 53.50525 10.48412 10286 ft 409 kts 328°
2026-05-03 22:30 53.53031 10.46204 9550 ft 405 kts 328°
2026-05-03 22:30 53.55517 10.44010 8752 ft 401 kts 327°
2026-05-03 22:30 53.57803 10.41543 8011 ft 392 kts 320°
2026-05-03 22:31 53.59978 10.38751 7346 ft 383 kts 317°
2026-05-03 22:31 53.61972 10.35966 6638 ft 370 kts 315°
2026-05-03 22:31 53.63878 10.33194 5491 ft 356 kts 315°
2026-05-03 22:31 53.65791 10.30620 4374 ft 349 kts 327°
2026-05-03 22:32 53.68013 10.29449 4194 ft 323 kts 352°
2026-05-03 22:32 53.70136 10.29890 4138 ft 298 kts 17°
2026-05-03 22:32 53.71829 10.31661 3966 ft 278 kts 39°
2026-05-03 22:32 53.73171 10.33844 3801 ft 258 kts 40°
2026-05-03 22:33 53.74626 10.35428 3442 ft 245 kts 15°
2026-05-03 22:33 53.76256 10.35908 3127 ft 233 kts 351°
2026-05-03 22:33 53.77788 10.35321 2974 ft 222 kts 325°
2026-05-03 22:33 53.78857 10.33594 2976 ft 211 kts 292°
2026-05-03 22:34 53.79193 10.31229 3004 ft 214 kts 266°
2026-05-03 22:34 53.78731 10.28712 2996 ft 235 kts 237°
2026-05-03 22:34 53.77577 10.26695 2990 ft 241 kts 226°
2026-05-03 22:34 53.76365 10.24752 2993 ft 239 kts 226°
2026-05-03 22:35 53.75170 10.22799 3003 ft 240 kts 226°
2026-05-03 22:35 53.73977 10.20855 3006 ft 241 kts 227°
2026-05-03 22:35 53.72851 10.18795 2864 ft 234 kts 232°
2026-05-03 22:35 53.71812 10.16692 2592 ft 227 kts 233°
2026-05-03 22:36 53.70823 10.14662 2301 ft 221 kts 232°
2026-05-03 22:36 53.69856 10.12688 2010 ft 215 kts 233°
2026-05-03 22:36 53.68918 10.10777 1724 ft 205 kts 232°
2026-05-03 22:36 53.68052 10.09016 1457 ft 190 kts 233°
2026-05-03 22:37 53.67234 10.07353 1232 ft 176 kts 233°
2026-05-03 22:37 53.66478 10.05816 968 ft 164 kts 232°
2026-05-03 22:37 53.65787 10.04413 762 ft 147 kts 232°
2026-05-03 22:37 53.65158 10.03133 573 ft 138 kts 232°
2026-05-03 22:38 53.64554 10.01907 411 ft 132 kts 227°
2026-05-03 22:38 53.63951 10.00685 217 ft 135 kts 230°
2026-05-03 22:38 53.63359 9.99483 62 ft 133 kts 230°
2026-05-03 22:38 53.62915 9.98578 44 ft 34 kts 230°
2026-05-03 22:39 53.62770 9.98477 44 ft 20 kts 187°
2026-05-03 22:39 53.62687 9.98538 47 ft 11 kts 62°
2026-05-03 22:39 53.62740 9.98653 47 ft 15 kts 50°
2026-05-03 22:39 53.62805 9.98783 47 ft 14 kts 50°
2026-05-03 22:40 53.62863 9.98903 45 ft 13 kts 51°
2026-05-03 22:40 53.62916 9.99010 47 ft 11 kts 50°
2026-05-03 22:40 53.62983 9.99144 47 ft 20 kts 50°
2026-05-03 22:40 53.63092 9.99382 47 ft 31 kts 54°
2026-05-03 22:41 53.63209 9.99641 48 ft 25 kts 49°
2026-05-03 22:41 53.63319 9.99849 48 ft 23 kts 53°
2026-05-03 22:41 53.63391 9.99992 48 ft 13 kts 50°
2026-05-03 22:41 53.63414 10.00122 48 ft 11 kts 82°
2026-05-03 22:42 53.63409 10.00243 48 ft 10 kts 90°
2026-05-03 22:42 53.63414 10.00337 48 ft 0 kts 85°